Year,Month,Day,Hour,Minute,Value (Times are PST for temperature in C)
2016,07,11,00,00,17.60
2016,07,11,00,01,17.60
2016,07,11,00,02,17.60
2016,07,11,00,03,17.50
2016,07,11,00,04,17.50
2016,07,11,00,05,17.50
2016,07,11,00,06,17.50
2016,07,11,00,07,17.50
2016,07,11,00,08,17.40
2016,07,11,00,09,17.40
2016,07,11,00,10,17.40
2016,07,11,00,11,17.40
2016,07,11,00,12,17.40
2016,07,11,00,13,17.30
2016,07,11,00,14,17.30
2016,07,11,00,15,17.30
2016,07,11,00,16,17.30
2016,07,11,00,17,17.30
2016,07,11,00,18,17.30
2016,07,11,00,19,17.30
2016,07,11,00,20,17.30
2016,07,11,00,21,17.20
2016,07,11,00,22,17.30
2016,07,11,00,23,17.20
2016,07,11,00,24,17.20
2016,07,11,00,25,17.20
2016,07,11,00,26,17.20
2016,07,11,00,27,17.20
2016,07,11,00,28,17.20
2016,07,11,00,29,17.20
2016,07,11,00,30,17.20
2016,07,11,00,31,17.20
2016,07,11,00,32,17.20
2016,07,11,00,33,17.10
2016,07,11,00,34,17.10
2016,07,11,00,35,17.10
2016,07,11,00,36,17.10
2016,07,11,00,37,17.10
2016,07,11,00,38,17.10
2016,07,11,00,39,17.10
2016,07,11,00,40,17.10
2016,07,11,00,41,17.10
2016,07,11,00,42,17.00
2016,07,11,00,43,17.00
2016,07,11,00,44,17.00
2016,07,11,00,45,17.00
2016,07,11,00,46,17.00
2016,07,11,00,47,17.00
2016,07,11,00,48,17.00
2016,07,11,00,49,17.00
2016,07,11,00,50,17.00
2016,07,11,00,51,17.00
2016,07,11,00,52,17.00
2016,07,11,00,53,16.90
2016,07,11,00,54,16.90
2016,07,11,00,55,16.90
2016,07,11,00,56,16.90
2016,07,11,00,57,16.90
2016,07,11,00,58,16.90
2016,07,11,00,59,16.90
2016,07,11,01,00,16.90
2016,07,11,01,01,16.90
2016,07,11,01,02,16.90
2016,07,11,01,03,16.90
2016,07,11,01,04,16.80
2016,07,11,01,05,16.80
2016,07,11,01,06,16.80
2016,07,11,01,07,16.80
2016,07,11,01,08,16.80
2016,07,11,01,09,16.80
2016,07,11,01,10,16.80
2016,07,11,01,11,16.80
2016,07,11,01,12,16.80
2016,07,11,01,13,16.80
2016,07,11,01,14,16.80
2016,07,11,01,15,16.80
2016,07,11,01,16,16.80
2016,07,11,01,17,16.80
2016,07,11,01,18,16.80
2016,07,11,01,19,16.80
2016,07,11,01,20,16.80
2016,07,11,01,21,16.70
2016,07,11,01,22,16.70
2016,07,11,01,23,16.70
2016,07,11,01,24,16.70
2016,07,11,01,25,16.70
2016,07,11,01,26,16.70
2016,07,11,01,27,16.70
2016,07,11,01,28,16.70
2016,07,11,01,29,16.70
2016,07,11,01,30,16.70
2016,07,11,01,31,16.70
2016,07,11,01,32,16.70
2016,07,11,01,33,16.60
2016,07,11,01,34,16.60
2016,07,11,01,35,16.60
2016,07,11,01,36,16.60
2016,07,11,01,37,16.60
2016,07,11,01,38,16.60
2016,07,11,01,39,16.50
2016,07,11,01,40,16.50
2016,07,11,01,41,16.50
2016,07,11,01,42,16.40
2016,07,11,01,43,16.40
2016,07,11,01,44,16.40
2016,07,11,01,45,16.40
2016,07,11,01,46,16.30
2016,07,11,01,47,16.30
2016,07,11,01,48,16.30
2016,07,11,01,49,16.30
2016,07,11,01,50,16.30
2016,07,11,01,51,16.30
2016,07,11,01,52,16.30
2016,07,11,01,53,16.30
2016,07,11,01,54,16.30
2016,07,11,01,55,16.30
2016,07,11,01,56,16.30
2016,07,11,01,57,16.30
2016,07,11,01,58,16.30
2016,07,11,01,59,16.20
2016,07,11,02,00,16.20
2016,07,11,02,01,16.20
2016,07,11,02,02,16.20
2016,07,11,02,03,16.20
2016,07,11,02,04,16.20
2016,07,11,02,05,16.20
2016,07,11,02,06,16.20
2016,07,11,02,07,16.20
2016,07,11,02,08,16.20
2016,07,11,02,09,16.20
2016,07,11,02,10,16.10
2016,07,11,02,11,16.10
2016,07,11,02,12,16.10
2016,07,11,02,13,16.10
2016,07,11,02,14,16.10
2016,07,11,02,15,16.10
2016,07,11,02,16,16.10
2016,07,11,02,17,16.10
2016,07,11,02,18,16.00
2016,07,11,02,19,16.00
2016,07,11,02,20,16.00
2016,07,11,02,21,16.00
2016,07,11,02,22,16.00
2016,07,11,02,23,16.00
2016,07,11,02,24,16.00
2016,07,11,02,25,16.00
2016,07,11,02,26,16.00
2016,07,11,02,27,16.00
2016,07,11,02,28,16.00
2016,07,11,02,29,16.00
2016,07,11,02,30,16.00
2016,07,11,02,31,16.00
2016,07,11,02,32,16.00
2016,07,11,02,33,16.00
2016,07,11,02,34,16.00
2016,07,11,02,35,16.00
2016,07,11,02,36,15.90
2016,07,11,02,37,15.90
2016,07,11,02,38,15.90
2016,07,11,02,39,15.90
2016,07,11,02,40,15.90
2016,07,11,02,41,15.90
2016,07,11,02,42,15.90
2016,07,11,02,43,15.90
2016,07,11,02,44,15.90
2016,07,11,02,45,15.80
2016,07,11,02,46,15.80
2016,07,11,02,47,15.80
2016,07,11,02,48,15.80
2016,07,11,02,49,15.70
2016,07,11,02,50,15.70
2016,07,11,02,51,15.70
2016,07,11,02,52,15.60
2016,07,11,02,53,15.60
2016,07,11,02,54,15.60
2016,07,11,02,55,15.60
2016,07,11,02,56,15.60
2016,07,11,02,57,15.50
2016,07,11,02,58,15.50
2016,07,11,02,59,15.50
2016,07,11,03,00,15.50
2016,07,11,03,01,15.40
2016,07,11,03,02,15.40
2016,07,11,03,03,15.40
2016,07,11,03,04,15.40
2016,07,11,03,05,15.30
2016,07,11,03,06,15.30
2016,07,11,03,07,15.30
2016,07,11,03,08,15.30
2016,07,11,03,09,15.30
2016,07,11,03,10,15.30
2016,07,11,03,11,15.30
2016,07,11,03,12,15.30
2016,07,11,03,13,15.20
2016,07,11,03,14,15.20
2016,07,11,03,15,15.20
2016,07,11,03,16,15.20
2016,07,11,03,17,15.20
2016,07,11,03,18,15.20
2016,07,11,03,19,15.20
2016,07,11,03,20,15.20
2016,07,11,03,21,15.20
2016,07,11,03,22,15.20
2016,07,11,03,23,15.20
2016,07,11,03,24,15.20
2016,07,11,03,25,15.20
2016,07,11,03,26,15.10
2016,07,11,03,27,15.10
2016,07,11,03,28,15.10
2016,07,11,03,29,15.10
2016,07,11,03,30,15.10
2016,07,11,03,31,15.10
2016,07,11,03,32,15.00
2016,07,11,03,33,15.00
2016,07,11,03,34,15.00
2016,07,11,03,35,14.90
2016,07,11,03,36,14.90
2016,07,11,03,37,14.90
2016,07,11,03,38,14.90
2016,07,11,03,39,14.90
2016,07,11,03,40,14.80
2016,07,11,03,41,14.80
2016,07,11,03,42,14.80
2016,07,11,03,43,14.80
2016,07,11,03,44,14.80
2016,07,11,03,45,14.80
2016,07,11,03,46,14.80
2016,07,11,03,47,14.80
2016,07,11,03,48,14.80
2016,07,11,03,49,14.90
2016,07,11,03,50,14.90
2016,07,11,03,51,14.90
2016,07,11,03,52,14.90
2016,07,11,03,53,14.90
2016,07,11,03,54,14.90
2016,07,11,03,55,14.90
2016,07,11,03,56,14.90
2016,07,11,03,57,14.90
2016,07,11,03,58,14.90
2016,07,11,03,59,14.80
2016,07,11,04,00,14.80
2016,07,11,04,01,14.80
2016,07,11,04,02,14.80
2016,07,11,04,03,14.80
2016,07,11,04,04,14.70
2016,07,11,04,05,14.70
2016,07,11,04,06,14.70
2016,07,11,04,07,14.70
2016,07,11,04,08,14.70
2016,07,11,04,09,14.60
2016,07,11,04,10,14.60
2016,07,11,04,11,14.60
2016,07,11,04,12,14.60
2016,07,11,04,13,14.50
2016,07,11,04,14,14.50
2016,07,11,04,15,14.50
2016,07,11,04,16,14.50
2016,07,11,04,17,14.40
2016,07,11,04,18,14.40
2016,07,11,04,19,14.40
2016,07,11,04,20,14.40
2016,07,11,04,21,14.40
2016,07,11,04,22,14.40
2016,07,11,04,23,14.30
2016,07,11,04,24,14.30
2016,07,11,04,25,14.30
2016,07,11,04,26,14.30
2016,07,11,04,27,14.30
2016,07,11,04,28,14.30
2016,07,11,04,29,14.20
2016,07,11,04,30,14.20
2016,07,11,04,31,14.20
2016,07,11,04,32,14.20
2016,07,11,04,33,14.20
2016,07,11,04,34,14.20
2016,07,11,04,35,14.10
2016,07,11,04,36,14.10
2016,07,11,04,37,14.10
2016,07,11,04,38,14.10
2016,07,11,04,39,14.10
2016,07,11,04,40,14.00
2016,07,11,04,41,14.00
2016,07,11,04,42,14.00
2016,07,11,04,43,13.90
2016,07,11,04,44,13.90
2016,07,11,04,45,13.90
2016,07,11,04,46,13.90
2016,07,11,04,47,13.90
2016,07,11,04,48,13.80
2016,07,11,04,49,13.80
2016,07,11,04,50,13.80
2016,07,11,04,51,13.80
2016,07,11,04,52,13.80
2016,07,11,04,53,13.80
2016,07,11,04,54,13.80
2016,07,11,04,55,13.80
2016,07,11,04,56,13.80
2016,07,11,04,57,13.80
2016,07,11,04,58,13.80
2016,07,11,04,59,13.80
2016,07,11,05,00,13.80
2016,07,11,05,01,13.80
2016,07,11,05,02,13.80
2016,07,11,05,03,13.80
2016,07,11,05,04,13.80
2016,07,11,05,05,13.80
2016,07,11,05,06,13.80
2016,07,11,05,07,13.80
2016,07,11,05,08,13.80
2016,07,11,05,09,13.80
2016,07,11,05,10,13.70
2016,07,11,05,11,13.70
2016,07,11,05,12,13.70
2016,07,11,05,13,13.70
2016,07,11,05,14,13.70
2016,07,11,05,15,13.70
2016,07,11,05,16,13.70
2016,07,11,05,17,13.70
2016,07,11,05,18,13.70
2016,07,11,05,19,13.70
2016,07,11,05,20,13.70
2016,07,11,05,21,13.80
2016,07,11,05,22,13.80
2016,07,11,05,23,13.80
2016,07,11,05,24,13.80
2016,07,11,05,25,13.80
2016,07,11,05,26,13.80
2016,07,11,05,27,13.80
2016,07,11,05,28,13.80
2016,07,11,05,29,13.80
2016,07,11,05,30,13.90
2016,07,11,05,31,13.90
2016,07,11,05,32,13.80
2016,07,11,05,33,13.90
2016,07,11,05,34,13.90
2016,07,11,05,35,13.80
2016,07,11,05,36,13.80
2016,07,11,05,37,13.80
2016,07,11,05,38,13.80
2016,07,11,05,39,13.80
2016,07,11,05,40,13.80
2016,07,11,05,41,13.80
2016,07,11,05,42,13.80
2016,07,11,05,43,13.80
2016,07,11,05,44,13.90
2016,07,11,05,45,13.90
2016,07,11,05,46,13.90
2016,07,11,05,47,13.90
2016,07,11,05,48,14.00
2016,07,11,05,49,14.00
2016,07,11,05,50,14.10
2016,07,11,05,51,14.10
2016,07,11,05,52,14.10
2016,07,11,05,53,14.20
2016,07,11,05,54,14.20
2016,07,11,05,55,14.20
2016,07,11,05,56,14.30
2016,07,11,05,57,14.30
2016,07,11,05,58,14.30
2016,07,11,05,59,14.30
2016,07,11,06,00,14.40
2016,07,11,06,01,14.40
2016,07,11,06,02,14.40
2016,07,11,06,03,14.50
2016,07,11,06,04,14.50
2016,07,11,06,05,14.50
2016,07,11,06,06,14.50
2016,07,11,06,07,14.60
2016,07,11,06,08,14.60
2016,07,11,06,09,14.60
2016,07,11,06,10,14.70
2016,07,11,06,11,14.70
2016,07,11,06,12,14.70
2016,07,11,06,13,14.70
2016,07,11,06,14,14.80
2016,07,11,06,15,14.80
2016,07,11,06,16,14.80
2016,07,11,06,17,14.80
2016,07,11,06,18,14.80
2016,07,11,06,19,14.90
2016,07,11,06,20,14.90
2016,07,11,06,21,14.90
2016,07,11,06,22,14.90
2016,07,11,06,23,14.90
2016,07,11,06,24,14.90
2016,07,11,06,25,14.90
2016,07,11,06,26,14.90
2016,07,11,06,27,14.90
2016,07,11,06,28,14.90
2016,07,11,06,29,14.90
2016,07,11,06,30,14.90
2016,07,11,06,31,14.90
2016,07,11,06,32,14.90
2016,07,11,06,33,15.00
2016,07,11,06,34,15.00
2016,07,11,06,35,15.00
2016,07,11,06,36,15.00
2016,07,11,06,37,15.10
2016,07,11,06,38,15.10
2016,07,11,06,39,15.10
2016,07,11,06,40,15.10
2016,07,11,06,41,15.20
2016,07,11,06,42,15.20
2016,07,11,06,43,15.20
2016,07,11,06,44,15.20
2016,07,11,06,45,15.30
2016,07,11,06,46,15.30
2016,07,11,06,47,15.30
2016,07,11,06,48,15.30
2016,07,11,06,49,15.40
2016,07,11,06,50,15.40
2016,07,11,06,51,15.40
2016,07,11,06,52,15.50
2016,07,11,06,53,15.50
2016,07,11,06,54,15.50
2016,07,11,06,55,15.60
2016,07,11,06,56,15.60
2016,07,11,06,57,15.60
2016,07,11,06,58,15.60
2016,07,11,06,59,15.60
2016,07,11,07,00,15.60
2016,07,11,07,01,15.60
2016,07,11,07,02,15.60
2016,07,11,07,03,15.60
2016,07,11,07,04,15.70
2016,07,11,07,05,15.70
2016,07,11,07,06,15.70
2016,07,11,07,07,15.70
2016,07,11,07,08,15.70
2016,07,11,07,09,15.80
2016,07,11,07,10,15.80
2016,07,11,07,11,15.80
2016,07,11,07,12,15.80
2016,07,11,07,13,15.80
2016,07,11,07,14,15.80
2016,07,11,07,15,15.80
2016,07,11,07,16,15.80
2016,07,11,07,17,15.80
2016,07,11,07,18,15.90
2016,07,11,07,19,15.90
2016,07,11,07,20,15.90
2016,07,11,07,21,15.90
2016,07,11,07,22,16.00
2016,07,11,07,23,16.00
2016,07,11,07,24,16.10
2016,07,11,07,25,16.10
2016,07,11,07,26,16.10
2016,07,11,07,27,16.20
2016,07,11,07,28,16.20
2016,07,11,07,29,16.20
2016,07,11,07,30,16.20
2016,07,11,07,31,16.30
2016,07,11,07,32,16.30
2016,07,11,07,33,16.30
2016,07,11,07,34,16.30
2016,07,11,07,35,16.30
2016,07,11,07,36,16.30
2016,07,11,07,37,16.30
2016,07,11,07,38,16.40
2016,07,11,07,39,16.40
2016,07,11,07,40,16.40
2016,07,11,07,41,16.50
2016,07,11,07,42,16.60
2016,07,11,07,43,16.60
2016,07,11,07,44,16.70
2016,07,11,07,45,16.80
2016,07,11,07,46,17.00
2016,07,11,07,47,17.00
2016,07,11,07,48,17.10
2016,07,11,07,49,17.20
2016,07,11,07,50,17.30
2016,07,11,07,51,17.40
2016,07,11,07,52,17.50
2016,07,11,07,53,17.50
2016,07,11,07,54,17.50
2016,07,11,07,55,17.60
2016,07,11,07,56,17.60
2016,07,11,07,57,17.60
2016,07,11,07,58,17.60
2016,07,11,07,59,17.50
2016,07,11,08,00,17.50
2016,07,11,08,01,17.50
2016,07,11,08,02,17.40
2016,07,11,08,03,17.40
2016,07,11,08,04,17.40
2016,07,11,08,05,17.40
2016,07,11,08,06,17.40
2016,07,11,08,07,17.40
2016,07,11,08,08,17.40
2016,07,11,08,09,17.50
2016,07,11,08,10,17.50
2016,07,11,08,11,17.60
2016,07,11,08,12,17.70
2016,07,11,08,13,17.70
2016,07,11,08,14,17.80
2016,07,11,08,15,17.80
2016,07,11,08,16,17.80
2016,07,11,08,17,17.80
2016,07,11,08,18,17.70
2016,07,11,08,19,17.70
2016,07,11,08,20,17.60
2016,07,11,08,21,17.60
2016,07,11,08,22,17.50
2016,07,11,08,23,17.50
2016,07,11,08,24,17.40
2016,07,11,08,25,17.30
2016,07,11,08,26,17.30
2016,07,11,08,27,17.30
2016,07,11,08,28,17.20
2016,07,11,08,29,17.20
2016,07,11,08,30,17.20
2016,07,11,08,31,17.20
2016,07,11,08,32,17.20
2016,07,11,08,33,17.20
2016,07,11,08,34,17.30
2016,07,11,08,35,17.30
2016,07,11,08,36,17.30
2016,07,11,08,37,17.40
2016,07,11,08,38,17.40
2016,07,11,08,39,17.50
2016,07,11,08,40,17.60
2016,07,11,08,41,17.70
2016,07,11,08,42,17.80
2016,07,11,08,43,17.90
2016,07,11,08,44,17.90
2016,07,11,08,45,17.90
2016,07,11,08,46,18.00
2016,07,11,08,47,18.10
2016,07,11,08,48,18.10
2016,07,11,08,49,18.10
2016,07,11,08,50,18.10
2016,07,11,08,51,18.00
2016,07,11,08,52,18.00
2016,07,11,08,53,17.90
2016,07,11,08,54,17.90
2016,07,11,08,55,17.80
2016,07,11,08,56,17.90
2016,07,11,08,57,17.90
2016,07,11,08,58,18.00
2016,07,11,08,59,18.00
2016,07,11,09,00,18.10
2016,07,11,09,01,18.10
2016,07,11,09,02,18.10
2016,07,11,09,03,18.20
2016,07,11,09,04,18.30
2016,07,11,09,05,18.30
2016,07,11,09,06,18.30
2016,07,11,09,07,18.30
2016,07,11,09,08,18.30
2016,07,11,09,09,18.30
2016,07,11,09,10,18.30
2016,07,11,09,11,18.40
2016,07,11,09,12,18.50
2016,07,11,09,13,18.40
2016,07,11,09,14,18.40
2016,07,11,09,15,18.40
2016,07,11,09,16,18.40
2016,07,11,09,17,18.40
2016,07,11,09,18,18.30
2016,07,11,09,19,18.30
2016,07,11,09,20,18.30
2016,07,11,09,21,18.40
2016,07,11,09,22,18.40
2016,07,11,09,23,18.50
2016,07,11,09,24,18.60
2016,07,11,09,25,18.60
2016,07,11,09,26,18.60
2016,07,11,09,27,18.60
2016,07,11,09,28,18.60
2016,07,11,09,29,18.50
2016,07,11,09,30,18.50
2016,07,11,09,31,18.40
2016,07,11,09,32,18.40
2016,07,11,09,33,18.40
2016,07,11,09,34,18.40
2016,07,11,09,35,18.40
2016,07,11,09,36,18.40
2016,07,11,09,37,18.40
2016,07,11,09,38,18.40
2016,07,11,09,39,18.30
2016,07,11,09,40,18.30
2016,07,11,09,41,18.30
2016,07,11,09,42,18.30
2016,07,11,09,43,18.40
2016,07,11,09,44,18.50
2016,07,11,09,45,18.50
2016,07,11,09,46,18.40
2016,07,11,09,47,18.40
2016,07,11,09,48,18.30
2016,07,11,09,49,18.20
2016,07,11,09,50,18.10
2016,07,11,09,51,18.10
2016,07,11,09,52,18.10
2016,07,11,09,53,18.10
2016,07,11,09,54,18.10
2016,07,11,09,55,18.10
2016,07,11,09,56,18.10
2016,07,11,09,57,18.10
2016,07,11,09,58,18.00
2016,07,11,09,59,18.00
2016,07,11,10,00,18.00
2016,07,11,10,01,18.00
2016,07,11,10,02,18.10
2016,07,11,10,03,18.10
2016,07,11,10,04,18.10
2016,07,11,10,05,18.10
2016,07,11,10,06,18.10
2016,07,11,10,07,18.00
2016,07,11,10,08,18.00
2016,07,11,10,09,17.90
2016,07,11,10,10,17.90
2016,07,11,10,11,17.80
2016,07,11,10,12,17.80
2016,07,11,10,13,17.80
2016,07,11,10,14,17.80
2016,07,11,10,15,17.80
2016,07,11,10,16,17.80
2016,07,11,10,17,17.80
2016,07,11,10,18,17.80
2016,07,11,10,19,17.80
2016,07,11,10,20,17.90
2016,07,11,10,21,17.90
2016,07,11,10,22,17.90
2016,07,11,10,23,17.90
2016,07,11,10,24,17.90
2016,07,11,10,25,17.90
2016,07,11,10,26,17.90
2016,07,11,10,27,17.90
2016,07,11,10,28,18.00
2016,07,11,10,29,18.00
2016,07,11,10,30,18.10
2016,07,11,10,31,18.20
2016,07,11,10,32,18.30
2016,07,11,10,33,18.30
2016,07,11,10,34,18.30
2016,07,11,10,35,18.30
2016,07,11,10,36,18.40
2016,07,11,10,37,18.50
2016,07,11,10,38,18.60
2016,07,11,10,39,18.60
2016,07,11,10,40,18.60
2016,07,11,10,41,18.50
2016,07,11,10,42,18.50
2016,07,11,10,43,18.50
2016,07,11,10,44,18.50
2016,07,11,10,45,18.50
2016,07,11,10,46,18.60
2016,07,11,10,47,18.60
2016,07,11,10,48,18.50
2016,07,11,10,49,18.50
2016,07,11,10,50,18.50
2016,07,11,10,51,18.50
2016,07,11,10,52,18.50
2016,07,11,10,53,18.50
2016,07,11,10,54,18.50
2016,07,11,10,55,18.60
2016,07,11,10,56,18.60
2016,07,11,10,57,18.60
2016,07,11,10,58,18.60
2016,07,11,10,59,18.50
2016,07,11,11,00,18.50
2016,07,11,11,01,18.50
2016,07,11,11,02,18.60
2016,07,11,11,03,18.70
2016,07,11,11,04,18.70
2016,07,11,11,05,18.70
2016,07,11,11,06,18.70
2016,07,11,11,07,18.70
2016,07,11,11,08,18.70
2016,07,11,11,09,18.70
2016,07,11,11,10,18.60
2016,07,11,11,11,18.60
2016,07,11,11,12,18.60
2016,07,11,11,13,18.70
2016,07,11,11,14,18.70
2016,07,11,11,15,18.70
2016,07,11,11,16,18.70
2016,07,11,11,17,18.70
2016,07,11,11,18,18.70
2016,07,11,11,19,18.70
2016,07,11,11,20,18.70
2016,07,11,11,21,18.80
2016,07,11,11,22,18.80
2016,07,11,11,23,18.80
2016,07,11,11,24,18.80
2016,07,11,11,25,18.80
2016,07,11,11,26,18.80
2016,07,11,11,27,18.80
2016,07,11,11,28,18.80
2016,07,11,11,29,18.80
2016,07,11,11,30,18.80
2016,07,11,11,31,18.90
2016,07,11,11,32,19.00
2016,07,11,11,33,19.10
2016,07,11,11,34,19.20
2016,07,11,11,35,19.30
2016,07,11,11,36,19.30
2016,07,11,11,37,19.40
2016,07,11,11,38,19.40
2016,07,11,11,39,19.40
2016,07,11,11,40,19.40
2016,07,11,11,41,19.40
2016,07,11,11,42,19.40
2016,07,11,11,43,19.50
2016,07,11,11,44,19.70
2016,07,11,11,45,19.70
2016,07,11,11,46,19.70
2016,07,11,11,47,19.80
2016,07,11,11,48,19.80
2016,07,11,11,49,19.80
2016,07,11,11,50,19.70
2016,07,11,11,51,19.70
2016,07,11,11,52,19.60
2016,07,11,11,53,19.60
2016,07,11,11,54,19.50
2016,07,11,11,55,19.40
2016,07,11,11,56,19.40
2016,07,11,11,57,19.40
2016,07,11,11,58,19.30
2016,07,11,11,59,19.20
2016,07,11,12,00,19.10
2016,07,11,12,01,19.00
2016,07,11,12,02,18.90
2016,07,11,12,03,18.80
2016,07,11,12,04,18.80
2016,07,11,12,05,18.80
2016,07,11,12,06,18.80
2016,07,11,12,07,18.80
2016,07,11,12,08,18.70
2016,07,11,12,09,18.70
2016,07,11,12,10,18.70
2016,07,11,12,11,18.60
2016,07,11,12,12,18.50
2016,07,11,12,13,18.40
2016,07,11,12,14,18.30
2016,07,11,12,15,18.30
2016,07,11,12,16,18.30
2016,07,11,12,17,18.30
2016,07,11,12,18,18.30
2016,07,11,12,19,18.30
2016,07,11,12,20,18.30
2016,07,11,12,21,18.30
2016,07,11,12,22,18.30
2016,07,11,12,23,18.40
2016,07,11,12,24,18.50
2016,07,11,12,25,18.50
2016,07,11,12,26,18.50
2016,07,11,12,27,18.50
2016,07,11,12,28,18.50
2016,07,11,12,29,18.60
2016,07,11,12,30,18.60
2016,07,11,12,31,18.70
2016,07,11,12,32,18.70
2016,07,11,12,33,18.70
2016,07,11,12,34,18.70
2016,07,11,12,35,18.70
2016,07,11,12,36,18.70
2016,07,11,12,37,18.60
2016,07,11,12,38,18.60
2016,07,11,12,39,18.60
2016,07,11,12,40,18.50
2016,07,11,12,41,18.50
2016,07,11,12,42,18.40
2016,07,11,12,43,18.40
2016,07,11,12,44,18.50
2016,07,11,12,45,18.60
2016,07,11,12,46,18.70
2016,07,11,12,47,18.60
2016,07,11,12,48,18.70
2016,07,11,12,49,18.70
2016,07,11,12,50,18.70
2016,07,11,12,51,18.70
2016,07,11,12,52,18.70
2016,07,11,12,53,18.60
2016,07,11,12,54,18.60
2016,07,11,12,55,18.60
2016,07,11,12,56,18.70
2016,07,11,12,57,18.70
2016,07,11,12,58,18.80
2016,07,11,12,59,18.80
2016,07,11,13,00,18.70
2016,07,11,13,01,18.70
2016,07,11,13,02,18.60
2016,07,11,13,03,18.60
2016,07,11,13,04,18.70
2016,07,11,13,05,18.70
2016,07,11,13,06,18.70
2016,07,11,13,07,18.70
2016,07,11,13,08,18.60
2016,07,11,13,09,18.60
2016,07,11,13,10,18.60
2016,07,11,13,11,18.60
2016,07,11,13,12,18.60
2016,07,11,13,13,18.60
2016,07,11,13,14,18.60
2016,07,11,13,15,18.70
2016,07,11,13,16,18.70
2016,07,11,13,17,18.70
2016,07,11,13,18,18.80
2016,07,11,13,19,18.70
2016,07,11,13,20,18.70
2016,07,11,13,21,18.60
2016,07,11,13,22,18.60
2016,07,11,13,23,18.50
2016,07,11,13,24,18.50
2016,07,11,13,25,18.40
2016,07,11,13,26,18.40
2016,07,11,13,27,18.40
2016,07,11,13,28,18.40
2016,07,11,13,29,18.40
2016,07,11,13,30,18.40
2016,07,11,13,31,18.40
2016,07,11,13,32,18.40
2016,07,11,13,33,18.40
2016,07,11,13,34,18.40
2016,07,11,13,35,18.40
2016,07,11,13,36,18.40
2016,07,11,13,37,18.40
2016,07,11,13,38,18.40
2016,07,11,13,39,18.40
2016,07,11,13,40,18.50
2016,07,11,13,41,18.60
2016,07,11,13,42,18.60
2016,07,11,13,43,18.60
2016,07,11,13,44,18.70
2016,07,11,13,45,18.80
2016,07,11,13,46,18.80
2016,07,11,13,47,18.80
2016,07,11,13,48,19.00
2016,07,11,13,49,19.00
2016,07,11,13,50,19.10
2016,07,11,13,51,19.20
2016,07,11,13,52,19.30
2016,07,11,13,53,19.30
2016,07,11,13,54,19.40
2016,07,11,13,55,19.40
2016,07,11,13,56,19.30
2016,07,11,13,57,19.30
2016,07,11,13,58,19.40
2016,07,11,13,59,19.50
2016,07,11,14,00,19.60
2016,07,11,14,01,19.60
2016,07,11,14,02,19.60
2016,07,11,14,03,19.60
2016,07,11,14,04,19.50
2016,07,11,14,05,19.50
2016,07,11,14,06,19.40
2016,07,11,14,07,19.40
2016,07,11,14,08,19.30
2016,07,11,14,09,19.20
2016,07,11,14,10,19.20
2016,07,11,14,11,19.20
2016,07,11,14,12,19.10
2016,07,11,14,13,19.20
2016,07,11,14,14,19.20
2016,07,11,14,15,19.20
2016,07,11,14,16,19.30
2016,07,11,14,17,19.30
2016,07,11,14,18,19.40
2016,07,11,14,19,19.30
2016,07,11,14,20,19.30
2016,07,11,14,21,19.20
2016,07,11,14,22,19.20
2016,07,11,14,23,19.20
2016,07,11,14,24,19.10
2016,07,11,14,25,19.00
2016,07,11,14,26,19.00
2016,07,11,14,27,18.90
2016,07,11,14,28,18.90
2016,07,11,14,29,18.90
2016,07,11,14,30,19.00
2016,07,11,14,31,19.00
2016,07,11,14,32,19.00
2016,07,11,14,33,19.00
2016,07,11,14,34,18.90
2016,07,11,14,35,18.80
2016,07,11,14,36,18.80
2016,07,11,14,37,18.80
2016,07,11,14,38,18.80
2016,07,11,14,39,18.80
2016,07,11,14,40,18.70
2016,07,11,14,41,18.70
2016,07,11,14,42,18.60
2016,07,11,14,43,18.60
2016,07,11,14,44,18.60
2016,07,11,14,45,18.70
2016,07,11,14,46,18.70
2016,07,11,14,47,18.70
2016,07,11,14,48,18.80
2016,07,11,14,49,18.80
2016,07,11,14,50,18.90
2016,07,11,14,51,18.90
2016,07,11,14,52,18.90
2016,07,11,14,53,19.00
2016,07,11,14,54,19.10
2016,07,11,14,55,19.20
2016,07,11,14,56,19.30
2016,07,11,14,57,19.30
2016,07,11,14,58,19.30
2016,07,11,14,59,19.30
2016,07,11,15,00,19.30
2016,07,11,15,01,19.40
2016,07,11,15,02,19.30
2016,07,11,15,03,19.30
2016,07,11,15,04,19.40
2016,07,11,15,05,19.40
2016,07,11,15,06,19.40
2016,07,11,15,07,19.40
2016,07,11,15,08,19.40
2016,07,11,15,09,19.40
2016,07,11,15,10,19.50
2016,07,11,15,11,19.50
2016,07,11,15,12,19.50
2016,07,11,15,13,19.50
2016,07,11,15,14,19.60
2016,07,11,15,15,19.60
2016,07,11,15,16,19.50
2016,07,11,15,17,19.40
2016,07,11,15,18,19.40
2016,07,11,15,19,19.30
2016,07,11,15,20,19.30
2016,07,11,15,21,19.30
2016,07,11,15,22,19.20
2016,07,11,15,23,19.20
2016,07,11,15,24,19.10
2016,07,11,15,25,19.10
2016,07,11,15,26,19.00
2016,07,11,15,27,19.00
2016,07,11,15,28,19.00
2016,07,11,15,29,18.90
2016,07,11,15,30,18.90
2016,07,11,15,31,18.80
2016,07,11,15,32,18.80
2016,07,11,15,33,18.80
2016,07,11,15,34,18.70
2016,07,11,15,35,18.70
2016,07,11,15,36,18.70
2016,07,11,15,37,18.70
2016,07,11,15,38,18.70
2016,07,11,15,39,18.60
2016,07,11,15,40,18.60
2016,07,11,15,41,18.60
2016,07,11,15,42,18.70
2016,07,11,15,43,18.70
2016,07,11,15,44,18.70
2016,07,11,15,45,18.70
2016,07,11,15,46,18.60
2016,07,11,15,47,18.60
2016,07,11,15,48,18.50
2016,07,11,15,49,18.50
2016,07,11,15,50,18.50
2016,07,11,15,51,18.50
2016,07,11,15,52,18.60
2016,07,11,15,53,18.60
2016,07,11,15,54,18.50
2016,07,11,15,55,18.50
2016,07,11,15,56,18.50
2016,07,11,15,57,18.50
2016,07,11,15,58,18.50
2016,07,11,15,59,18.50
2016,07,11,16,00,18.50
2016,07,11,16,01,18.60
2016,07,11,16,02,18.60
2016,07,11,16,03,18.60
2016,07,11,16,04,18.70
2016,07,11,16,05,18.70
2016,07,11,16,06,18.70
2016,07,11,16,07,18.70
2016,07,11,16,08,18.70
2016,07,11,16,09,18.70
2016,07,11,16,10,18.70
2016,07,11,16,11,18.70
2016,07,11,16,12,18.70
2016,07,11,16,13,18.70
2016,07,11,16,14,18.60
2016,07,11,16,15,18.60
2016,07,11,16,16,18.60
2016,07,11,16,17,18.60
2016,07,11,16,18,18.60
2016,07,11,16,19,18.70
2016,07,11,16,20,18.70
2016,07,11,16,21,18.70
2016,07,11,16,22,18.70
2016,07,11,16,23,18.70
2016,07,11,16,24,18.70
2016,07,11,16,25,18.60
2016,07,11,16,26,18.60
2016,07,11,16,27,18.60
2016,07,11,16,28,18.60
2016,07,11,16,29,18.50
2016,07,11,16,30,18.50
2016,07,11,16,31,18.50
2016,07,11,16,32,18.50
2016,07,11,16,33,18.50
2016,07,11,16,34,18.50
2016,07,11,16,35,18.50
2016,07,11,16,36,18.50
2016,07,11,16,37,18.60
2016,07,11,16,38,18.70
2016,07,11,16,39,18.70
2016,07,11,16,40,18.70
2016,07,11,16,41,18.60
2016,07,11,16,42,18.60
2016,07,11,16,43,18.60
2016,07,11,16,44,18.60
2016,07,11,16,45,18.60
2016,07,11,16,46,18.60
2016,07,11,16,47,18.70
2016,07,11,16,48,18.70
2016,07,11,16,49,18.70
2016,07,11,16,50,18.70
2016,07,11,16,51,18.70
2016,07,11,16,52,18.80
2016,07,11,16,53,18.80
2016,07,11,16,54,18.80
2016,07,11,16,55,18.70
2016,07,11,16,56,18.70
2016,07,11,16,57,18.70
2016,07,11,16,58,18.70
2016,07,11,16,59,18.70
2016,07,11,17,00,18.70
2016,07,11,17,01,18.70
2016,07,11,17,02,18.70
2016,07,11,17,03,18.70
2016,07,11,17,04,18.70
2016,07,11,17,05,18.70
2016,07,11,17,06,18.70
2016,07,11,17,07,18.70
2016,07,11,17,08,18.70
2016,07,11,17,09,18.70
2016,07,11,17,10,18.70
2016,07,11,17,11,18.70
2016,07,11,17,12,18.70
2016,07,11,17,13,18.70
2016,07,11,17,14,18.70
2016,07,11,17,15,18.70
2016,07,11,17,16,18.70
2016,07,11,17,17,18.60
2016,07,11,17,18,18.60
2016,07,11,17,19,18.50